• In Uzbekistan
  • List of Countries
  • For 7 days
  • Water Temperature
  • Satellite Maps
  • Weather Map
  • Weather Widgets
  • user-avatar
    Login

    Hourly Weather Malanje

    Today, 11 December, Monday

    Time Temperature Precipitation Wind Pressure Humidity
    00:00 +20°C° 0.1 mm 1 mps 665 mmHg 98%
    01:00 +20°C° 0 mm 1 mps 665 mmHg 99%
    02:00 +20°C° 0 mm 1 mps 665 mmHg 99%
    03:00 +20°C° 0 mm 1 mps 665 mmHg 99%
    04:00 +20°C° 0 mm 1 mps 664 mmHg 99%
    05:00 +20°C° 0 mm 1 mps 665 mmHg 98%
    06:00 +20°C° 0 mm 1 mps 665 mmHg 98%
    07:00 +20°C° 0 mm 1 mps 666 mmHg 97%
    08:00 +21°C° 0.1 mm 1 mps 666 mmHg 94%
    09:00 +21°C° 0.1 mm 2 mps 666 mmHg 91%
    10:00 +21°C° 0.1 mm 2 mps 666 mmHg 88%
    11:00 +24°C° 0.1 mm 2 mps 666 mmHg 81%
    12:00 +25°C° 0.1 mm 2 mps 666 mmHg 74%
    13:00 +27°C° 0.1 mm 3 mps 665 mmHg 67%
    14:00 +26°C° 0.4 mm 3 mps 665 mmHg 72%
    15:00 +26°C° 0.4 mm 2 mps 664 mmHg 76%
    16:00 +25°C° 0.4 mm 2 mps 664 mmHg 81%
    17:00 +24°C° 0.3 mm 2 mps 664 mmHg 85%
    18:00 +21°C° 0.3 mm 2 mps 664 mmHg 89%
    19:00 +21°C° 0.3 mm 1 mps 664 mmHg 92%
    20:00 +21°C° 0 mm 1 mps 664 mmHg 94%
    21:00 +20°C° 0 mm 1 mps 664 mmHg 95%
    22:00 +20°C° 0 mm 1 mps 665 mmHg 96%
    23:00 +20°C° 0 mm 1 mps 665 mmHg 96%

    Tomorrow, 12 December, Tuesday

    Time Temperature Precipitation Wind Pressure Humidity
    00:00 +19°C° 0 mm 1 mps 664 mmHg 96%
    01:00 +19°C° 0 mm 1 mps 664 mmHg 97%
    02:00 +19°C° 0 mm 1 mps 664 mmHg 97%
    03:00 +19°C° 0 mm 1 mps 664 mmHg 98%
    04:00 +19°C° 0 mm 1 mps 664 mmHg 98%
    05:00 +19°C° 0 mm 1 mps 664 mmHg 97%
    06:00 +20°C° 0 mm 1 mps 664 mmHg 96%
    07:00 +19°C° 0 mm 2 mps 665 mmHg 95%
    08:00 +21°C° 0.1 mm 2 mps 665 mmHg 89%
    09:00 +23°C° 0.1 mm 2 mps 666 mmHg 83%
    10:00 +25°C° 0.1 mm 2 mps 666 mmHg 77%
    11:00 +25°C° 0.6 mm 3 mps 666 mmHg 77%
    12:00 +26°C° 0.6 mm 3 mps 665 mmHg 77%
    13:00 +26°C° 0.6 mm 3 mps 665 mmHg 77%
    14:00 +26°C° 0.6 mm 3 mps 664 mmHg 79%
    15:00 +26°C° 0.6 mm 3 mps 664 mmHg 80%
    16:00 +26°C° 0.6 mm 2 mps 663 mmHg 82%
    17:00 +24°C° 0.3 mm 2 mps 664 mmHg 87%
    18:00 +23°C° 0.3 mm 2 mps 664 mmHg 91%
    19:00 +21°C° 0.3 mm 1 mps 664 mmHg 96%
    20:00 +21°C° 0 mm 1 mps 664 mmHg 96%
    21:00 +20°C° 0 mm 1 mps 665 mmHg 97%
    22:00 +20°C° 0 mm 1 mps 665 mmHg 97%
    23:00 +20°C° 0 mm 1 mps 665 mmHg 97%

    Day after tomorrow, 13 December, Wednesday

    Time Temperature Precipitation Wind Pressure Humidity
    00:00 +19°C° 0 mm 1 mps 665 mmHg 97%
    01:00 +19°C° 0 mm 1 mps 665 mmHg 97%
    02:00 +19°C° 0 mm 1 mps 664 mmHg 97%
    03:00 +19°C° 0 mm 1 mps 664 mmHg 97%
    04:00 +19°C° 0 mm 1 mps 664 mmHg 96%
    05:00 +19°C° 0 mm 1 mps 665 mmHg 96%
    06:00 +20°C° 0 mm 1 mps 665 mmHg 95%
    07:00 +20°C° 0 mm 1 mps 665 mmHg 94%
    08:00 +22°C° 0.2 mm 1 mps 666 mmHg 87%
    09:00 +24°C° 0.2 mm 1 mps 666 mmHg 79%
    10:00 +26°C° 0.2 mm 2 mps 667 mmHg 71%
    11:00 +27°C° 0.3 mm 2 mps 666 mmHg 68%
    12:00 +28°C° 0.3 mm 2 mps 666 mmHg 64%
    13:00 +29°C° 0.3 mm 2 mps 665 mmHg 60%
    14:00 +28°C° 0.6 mm 2 mps 665 mmHg 67%
    15:00 +28°C° 0.6 mm 2 mps 664 mmHg 74%
    16:00 +27°C° 0.6 mm 2 mps 663 mmHg 81%
    17:00 +25°C° 0.8 mm 2 mps 664 mmHg 85%
    18:00 +23°C° 0.8 mm 1 mps 664 mmHg 89%
    19:00 +21°C° 0.8 mm 1 mps 664 mmHg 93%
    20:00 +21°C° 0.2 mm 1 mps 665 mmHg 93%
    21:00 +21°C° 0.2 mm 1 mps 665 mmHg 94%
    22:00 +21°C° 0.2 mm 1 mps 666 mmHg 94%
    23:00 +20°C° 0.1 mm 1 mps 666 mmHg 94%

    14 December, Thursday

    Time Temperature Precipitation Wind Pressure Humidity
    00:00 +20°C° 0.1 mm 1 mps 665 mmHg 95%
    01:00 +20°C° 0.1 mm 1 mps 665 mmHg 95%
    02:00 +20°C° 0 mm 1 mps 665 mmHg 95%
    03:00 +20°C° 0 mm 1 mps 664 mmHg 96%
    04:00 +20°C° 0 mm 1 mps 664 mmHg 96%
    05:00 +20°C° 0 mm 1 mps 665 mmHg 96%
    06:00 +20°C° 0 mm 1 mps 665 mmHg 95%
    07:00 +20°C° 0 mm 1 mps 666 mmHg 94%
    08:00 +22°C° 0 mm 1 mps 666 mmHg 89%
    09:00 +23°C° 0 mm 2 mps 666 mmHg 84%
    10:00 +24°C° 0 mm 2 mps 667 mmHg 78%
    11:00 +25°C° 0.2 mm 2 mps 666 mmHg 75%
    12:00 +26°C° 0.2 mm 2 mps 666 mmHg 72%
    13:00 +27°C° 0.2 mm 2 mps 665 mmHg 69%
    14:00 +26°C° 0.7 mm 2 mps 664 mmHg 75%
    15:00 +26°C° 0.7 mm 2 mps 664 mmHg 81%
    16:00 +25°C° 0.7 mm 2 mps 663 mmHg 88%
    17:00 +24°C° 0.4 mm 1 mps 664 mmHg 90%
    18:00 +23°C° 0.4 mm 1 mps 664 mmHg 92%
    19:00 +21°C° 0.4 mm 1 mps 664 mmHg 94%
    20:00 +21°C° 0 mm 1 mps 665 mmHg 94%
    21:00 +21°C° 0 mm 1 mps 665 mmHg 94%
    22:00 +20°C° 0 mm 1 mps 665 mmHg 94%
    23:00 +20°C° 0 mm 1 mps 665 mmHg 95%

    15 December, Friday

    Time Temperature Precipitation Wind Pressure Humidity
    00:00 +20°C° 0 mm 1 mps 664 mmHg 96%
    01:00 +20°C° 0 mm 1 mps 664 mmHg 96%
    02:00 +20°C° 0 mm 1 mps 663 mmHg 97%
    03:00 +20°C° 0 mm 1 mps 663 mmHg 98%
    04:00 +20°C° 0 mm 1 mps 663 mmHg 98%
    05:00 +20°C° 0 mm 1 mps 664 mmHg 98%
    06:00 +21°C° 0 mm 1 mps 665 mmHg 97%
    07:00 +21°C° 0 mm 1 mps 665 mmHg 96%
    08:00 +23°C° 0 mm 1 mps 666 mmHg 89%
    09:00 +25°C° 0 mm 1 mps 666 mmHg 82%
    10:00 +26°C° 0 mm 1 mps 667 mmHg 75%
    11:00 +27°C° 1.1 mm 1 mps 666 mmHg 76%
    12:00 +27°C° 1.1 mm 1 mps 665 mmHg 78%
    13:00 +27°C° 1.1 mm 1 mps 664 mmHg 80%
    14:00 +27°C° 1 mm 1 mps 664 mmHg 81%
    15:00 +27°C° 1 mm 2 mps 663 mmHg 82%
    16:00 +26°C° 1 mm 2 mps 663 mmHg 84%
    17:00 +25°C° 0.6 mm 1 mps 663 mmHg 86%
    18:00 +23°C° 0.6 mm 1 mps 663 mmHg 89%
    19:00 +22°C° 0.6 mm 1 mps 664 mmHg 92%
    20:00 +22°C° 0.2 mm 1 mps 664 mmHg 92%
    21:00 +21°C° 0.2 mm 1 mps 664 mmHg 93%
    22:00 +21°C° 0.2 mm 1 mps 665 mmHg 93%
    23:00 +21°C° 0.7 mm 1 mps 664 mmHg 95%

    16 December, Saturday

    Time Temperature Precipitation Wind Pressure Humidity
    00:00 +20°C° 0.7 mm 1 mps 664 mmHg 96%
    01:00 +20°C° 0.7 mm 1 mps 663 mmHg 97%
    02:00 +20°C° 1.4 mm 1 mps 663 mmHg 98%
    03:00 +20°C° 1.4 mm 1 mps 663 mmHg 98%
    04:00 +20°C° 1.4 mm 1 mps 663 mmHg 99%
    05:00 +20°C° 2.9 mm 1 mps 664 mmHg 98%
    06:00 +20°C° 2.9 mm 1 mps 664 mmHg 98%
    07:00 +20°C° 2.9 mm 1 mps 665 mmHg 98%
    08:00 +19°C° 2.5 mm 2 mps 665 mmHg 98%
    09:00 +19°C° 2.5 mm 2 mps 665 mmHg 98%
    10:00 +19°C° 2.5 mm 2 mps 665 mmHg 98%
    11:00 +20°C° 0.6 mm 2 mps 665 mmHg 96%
    12:00 +21°C° 0.6 mm 2 mps 664 mmHg 93%
    13:00 +21°C° 0.6 mm 2 mps 664 mmHg 91%
    14:00 +23°C° 0.2 mm 2 mps 664 mmHg 88%
    15:00 +24°C° 0.2 mm 2 mps 664 mmHg 85%
    16:00 +24°C° 0.2 mm 2 mps 663 mmHg 82%
    17:00 +23°C° 0.2 mm 1 mps 664 mmHg 87%
    18:00 +22°C° 0.2 mm 1 mps 664 mmHg 92%
    19:00 +20°C° 0.2 mm 1 mps 664 mmHg 96%
    20:00 +20°C° 0 mm 1 mps 664 mmHg 96%
    21:00 +20°C° 0 mm 1 mps 665 mmHg 96%
    22:00 +17°C° 0 mm 0 mps 665 mmHg 96%
    23:00 +19°C° 0 mm 1 mps 664 mmHg 96%
    Show more